Weather in Baltimore

United States     39°17′24″N   76°36′45″W
temp.,
°C
wind,
m/s
gust,
m/s
humid.,
%
clouds,
%
prec.,
mm/h
press.,
hPa
HPBL,
m
7 july, thu
thu723:00+24ese129192 3.6 101269
02:00+23ene3497100 18.3 1013214
05:00+23e579697 2.8 1013416
08:00+22ene3593100 4.8 1014358
11:00+22ene3594100 2.1 1015371
14:00+23ene3489100 2.5 1015478
17:00+24ne3381100 0.1 1015587
20:00+24e22831 0.1 1015267
8 july, fri
fri823:00+23ese22870 0.0 1015133
02:00+22se128918 0.0 1016124
05:00+21e1191100 0.0 1015107
08:00+23ene228517 0.0 1016338
11:00+25se3274100 0.0 1016696
14:00+27se2267100 0.0 1016816
17:00+28se336498 0.0 1014500
20:00+27s3573100 0.0 1013238
9 july, sat
sat923:00+24ssw368793 1.3 1013199
02:00+24e2386100 6.8 101358
05:00+21ne4893100 3.9 1013337
08:00+22ene4793100 6.7 1014391
11:00+23ne3691100 0.4 1014493
14:00+25e358188 1.5 1015762
17:00+25ese458075 3.9 1015653
20:00+24ese35825 5.8 1015329
10 july, sun
sun1023:00+22se358693 2.1 1016234
02:00+22e238761 2.4 1016120
05:00+20nne34929 0.3 1017243
08:00+20ne458654 0.3 1018379
11:00+23ene447368 0.0 1019978
14:00+25e236049 0.2 10181180
17:00+25ese436142 0.1 1017898
20:00+24ese456421 0.1 1018466
11 july, mon
mon1123:00+22se57680 0.0 1018396
02:00+21s35700 0.0 1018345
05:00+20s35730 0.0 1018293
08:00+21ssw23690 0.0 1019384
11:00+25sse445673 0.0 1018973
14:00+26sse454912 0.0 10171058
17:00+27sse66502 0.0 1014953
20:00+25s710601 0.0 1014463